Location: Oulou
(10.7667°N, 12.5167°W)
Time: 21:07:58
(UTC+00:00)

YAOGAN 1 - Pass Details

Date: 20 September 2019
Orbit: 619 x 621 km, 98.0° (Epoch: 19 October)

Event Time Altitude Azimuth Distance (km) Brightness Sun altitude
Rises 19:49:58 0° 175° (S) 2,887 5.9 -16.1°
Reaches altitude 10° 19:52:10 10° 179° (S) 1,981 5.1 -16.7°
Maximum altitude 19:56:25 60° 259° (WSW) 711 3.1 -17.7°
Drops below altitude 10° 20:00:40 10° 339° (NNW) 1,980 5.5 -18.8°
Sets 20:02:53 0° 343° (NNW) 2,885 6.3 -19.3°
